Home > Weather > Almere > Past weeks

Flag for Netherlands Weather for the Past 2 Weeks in Almere, Netherlands

Now
41 °F

Passing clouds.


Feels Like: 33 °F
Forecast: 38 / 45 °F
Wind: 16 mph from West

Location: Amsterdam Schiphol Airport

Current Time: Feb 9, 2016 at 10:47:16 PM

Latest Report: Feb 9, 2016 at 9:55 PM


Visibility: N/A

Pressure: 29.09 "Hg

Humidity: 76%

Dew point: 34 °F

Location of AlmereLocation

Historic Weather in Almere — Graph

°F

Almere Temperature Yesterday

Maximum temperature yesterday: 50 °F (at 12:25 PM)
Minimum temperature yesterday: 45 °F (at 12:25 AM)
Average temperature yesterday: 47 °F

High & Low Weather Summary for the Past Weeks

 TemperatureHumidityPressure
High54 °F (Jan 25, 10:55 PM)100% (Jan 26, 6:25 AM)30.27 "Hg (Jan 26, 6:25 AM)
Low37 °F (Feb 4, 12:55 AM)57% (Jan 30, 8:55 PM)28.94 "Hg (Feb 9, 3:25 PM)
Average47 °F81%29.80 "Hg
* Reported Jan 25 9:25 PM — Feb 9 9:25 PM, Almere, Weather by CustomWeather, © 2016

Note: Actual official high and low records may vary slightly from our data, if they occured in-between our weather recording intervals... More about our weather records

Advertising

Almere Weather History for the Previous 24 Hours

 ConditionsComfort  
Time TempWeatherWind HumidityBarometerVisibility
9:25 PM
Tue, Feb 9
41 °FSprinkles. Passing clouds.16 mph76%29.09 "HgN/A
8:55 PM41 °FPassing clouds.15 mph76%29.06 "HgN/A
8:25 PM41 °FPassing clouds.12 mph76%29.06 "HgN/A
7:55 PM41 °FPassing clouds.16 mph76%29.03 "HgN/A
7:25 PM41 °FPassing clouds.15 mph81%29.03 "HgN/A
6:55 PM41 °FPassing clouds.14 mph87%29.00 "HgN/A
6:25 PM41 °FLight rain. Passing clouds.15 mph87%29.00 "HgN/A
5:55 PM41 °FPartly cloudy.13 mph87%29.00 "HgN/A
5:25 PM41 °FDrizzle. Partly sunny.14 mph87%28.97 "HgN/A
4:55 PM41 °FDrizzle. Partly sunny.14 mph87%28.97 "HgN/A
4:25 PM39 °FLight rain. Broken clouds.12 mph93%28.94 "HgN/A
3:55 PM41 °FLight rain. Broken clouds.9 mph87%28.94 "HgN/A
3:25 PM41 °FRain. Overcast.7 mph87%28.94 "HgN/A
2:55 PM41 °FRain. Overcast.6 mph81%28.97 "HgN/A
2:25 PM41 °FRain. Overcast.2 mph81%28.97 "Hg6 mi
1:55 PM41 °FRain. Overcast.3 mph87%29.00 "HgN/A
1:25 PM43 °FLight rain. Scattered clouds.6 mph76%29.03 "HgN/A
12:55 PM43 °FLight rain. Scattered clouds.9 mph87%29.03 "HgN/A
12:25 PM43 °FLight rain. Partly sunny.9 mph87%29.06 "HgN/A
11:25 AM45 °FPassing clouds.12 mph81%29.12 "HgN/A
10:55 AM45 °FPassing clouds.12 mph81%29.15 "HgN/A
10:25 AM43 °FScattered clouds.15 mph87%29.18 "HgN/A
9:55 AM43 °FPassing clouds.15 mph87%29.21 "HgN/A
8:55 AM43 °FScattered clouds.14 mph87%29.24 "HgN/A
8:25 AM41 °FPassing clouds.16 mph93%29.24 "HgN/A
7:55 AM43 °FPassing clouds.15 mph87%29.24 "HgN/A
6:55 AM43 °FScattered showers. Passing clouds.22 mph87%29.27 "HgN/A
6:25 AM43 °FSprinkles. Passing clouds.23 mph87%29.30 "HgN/A
5:55 AM43 °FPassing clouds.21 mph87%29.27 "HgN/A
5:25 AM45 °FPassing clouds.24 mph71%29.30 "HgN/A
4:55 AM45 °FPassing clouds.24 mph71%29.30 "HgN/A
4:25 AM45 °FPassing clouds.23 mph71%29.30 "HgN/A
3:55 AM45 °FPassing clouds.24 mph71%29.30 "HgN/A
3:25 AM45 °FPassing clouds.25 mph71%29.30 "HgN/A
2:55 AM45 °FPassing clouds.26 mph71%29.30 "HgN/A
2:25 AM45 °FPassing clouds.30 mph76%29.30 "HgN/A
1:55 AM46 °FPartly cloudy.31 mph71%29.30 "HgN/A
1:25 AM46 °FPassing clouds.30 mph76%29.30 "HgN/A
12:55 AM46 °FPassing clouds.29 mph76%29.27 "HgN/A
12:25 AM46 °FLight rain. Passing clouds.29 mph82%29.27 "Hg5 mi
11:55 PM
Mon, Feb 8
46 °FLight rain. Passing clouds.32 mph82%29.24 "Hg5 mi
11:25 PM46 °FLight rain. Partly cloudy.31 mph87%29.24 "Hg4 mi
10:55 PM46 °FLight rain. Partly cloudy.33 mph82%29.21 "Hg4 mi
10:25 PM46 °FLight rain. Partly cloudy.36 mph87%29.18 "Hg4 mi
Weather by CustomWeather, © 2016

See weather overviewHow to use our weather pages